Time,TemperatureF,DewpointF,PressureIn,WindDirection,WindDirectionDegrees,WindSpeedMPH,WindSpeedGustMPH,Humidity,HourlyPrecipIn,Conditions,Clouds,dailyrainin,SoftwareType,DateUTC
2013-05-01 00:01:00,34.0,22.0,-100.00,North,-999,0.0,0.0,60,-99.99,,,-99.99,,2013-05-01 07:01:00,
2013-05-01 00:11:00,34.0,22.0,-100.00,North,-999,0.0,0.0,61,-99.99,,,-99.99,,2013-05-01 07:11:00,
2013-05-01 00:21:00,33.0,23.0,-100.00,South,180,0.0,1.0,64,-99.99,,,-99.99,,2013-05-01 07:21:00,
2013-05-01 00:32:00,33.0,23.0,-100.00,South,180,0.0,1.0,64,-99.99,,,-99.99,,2013-05-01 07:32:00,
2013-05-01 00:41:00,33.0,23.0,-100.00,North,-999,0.0,0.0,65,-99.99,,,-99.99,,2013-05-01 07:41:00,
2013-05-01 00:52:00,33.0,23.0,-100.00,SW,225,1.0,2.0,67,-99.99,,,-99.99,,2013-05-01 07:52:00,
2013-05-01 01:01:00,33.0,23.0,-100.00,SW,225,1.0,2.0,67,-99.99,,,-99.99,,2013-05-01 08:01:00,
2013-05-01 01:11:00,32.0,22.0,-100.00,South,180,2.0,3.0,68,-99.99,,,-99.99,,2013-05-01 08:11:00,
2013-05-01 01:21:00,32.0,22.0,-100.00,South,180,4.0,6.0,67,-99.99,,,-99.99,,2013-05-01 08:21:00,
2013-05-01 01:31:00,32.0,22.0,-100.00,South,180,4.0,6.0,67,-99.99,,,-99.99,,2013-05-01 08:31:00,
2013-05-01 01:42:00,31.0,22.0,-100.00,South,180,4.0,7.0,67,-99.99,,,-99.99,,2013-05-01 08:42:00,
2013-05-01 01:52:00,30.0,21.0,-100.00,SW,225,5.0,7.0,68,-99.99,,,-99.99,,2013-05-01 08:52:00,
2013-05-01 02:01:00,30.0,21.0,-100.00,SW,225,5.0,7.0,68,-99.99,,,-99.99,,2013-05-01 09:01:00,
2013-05-01 02:11:00,30.0,21.0,-100.00,SW,225,4.0,8.0,69,-99.99,,,-99.99,,2013-05-01 09:11:00,
2013-05-01 02:21:00,29.0,21.0,-100.00,South,180,5.0,6.0,69,-99.99,,,-99.99,,2013-05-01 09:21:00,
2013-05-01 02:33:00,29.0,21.0,-100.00,South,180,5.0,6.0,69,-99.99,,,-99.99,,2013-05-01 09:33:00,
2013-05-01 02:42:00,29.0,21.0,-100.00,South,180,4.0,7.0,69,-99.99,,,-99.99,,2013-05-01 09:42:00,
2013-05-01 02:52:00,29.0,20.0,-100.00,South,180,4.0,7.0,69,-99.99,,,-99.99,,2013-05-01 09:52:00,
2013-05-01 03:02:00,29.0,20.0,-100.00,South,180,4.0,7.0,69,-99.99,,,-99.99,,2013-05-01 10:02:00,
2013-05-01 03:12:00,29.0,20.0,-100.00,South,180,4.0,6.0,70,-99.99,,,-99.99,,2013-05-01 10:12:00,
2013-05-01 03:22:00,29.0,20.0,-100.00,South,180,6.0,8.0,70,-99.99,,,-99.99,,2013-05-01 10:22:00,
2013-05-01 03:33:00,29.0,20.0,-100.00,South,180,6.0,8.0,70,-99.99,,,-99.99,,2013-05-01 10:33:00,
2013-05-01 03:42:00,29.0,20.0,-100.00,South,180,4.0,8.0,70,-99.99,,,-99.99,,2013-05-01 10:42:00,
2013-05-01 03:52:00,28.0,20.0,-100.00,South,180,5.0,9.0,71,-99.99,,,-99.99,,2013-05-01 10:52:00,
2013-05-01 04:02:00,28.0,20.0,-100.00,South,180,5.0,9.0,71,-99.99,,,-99.99,,2013-05-01 11:02:00,
2013-05-01 04:11:00,28.0,20.0,-100.00,South,180,5.0,9.0,72,-99.99,,,-99.99,,2013-05-01 11:11:00,
2013-05-01 04:22:00,28.0,20.0,-100.00,South,180,6.0,8.0,72,-99.99,,,-99.99,,2013-05-01 11:22:00,
2013-05-01 04:32:00,28.0,20.0,-100.00,South,180,6.0,8.0,72,-99.99,,,-99.99,,2013-05-01 11:32:00,
2013-05-01 04:42:00,28.0,20.0,-100.00,South,180,5.0,7.0,72,-99.99,,,-99.99,,2013-05-01 11:42:00,
2013-05-01 04:51:00,28.0,20.0,-100.00,South,180,6.0,8.0,72,-99.99,,,-99.99,,2013-05-01 11:51:00,
2013-05-01 05:01:00,28.0,20.0,-100.00,South,180,6.0,8.0,72,-99.99,,,-99.99,,2013-05-01 12:01:00,
2013-05-01 05:11:00,28.0,20.0,-100.00,South,180,4.0,7.0,72,-99.99,,,-99.99,,2013-05-01 12:11:00,
2013-05-01 05:21:00,28.0,20.0,-100.00,South,180,6.0,8.0,72,-99.99,,,-99.99,,2013-05-01 12:21:00,
2013-05-01 05:31:00,28.0,20.0,-100.00,South,180,6.0,8.0,72,-99.99,,,-99.99,,2013-05-01 12:31:00,
2013-05-01 05:41:00,28.0,20.0,-100.00,South,180,6.0,8.0,72,-99.99,,,-99.99,,2013-05-01 12:41:00,
2013-05-01 05:52:00,27.0,20.0,-100.00,SW,225,5.0,7.0,75,-99.99,,,-99.99,,2013-05-01 12:52:00,
2013-05-01 06:01:00,27.0,20.0,-100.00,SW,225,5.0,7.0,75,-99.99,,,-99.99,,2013-05-01 13:01:00,
2013-05-01 06:11:00,27.0,20.0,-100.00,South,180,4.0,7.0,75,-99.99,,,-99.99,,2013-05-01 13:11:00,
2013-05-01 06:21:00,27.0,20.0,-100.00,South,180,6.0,8.0,75,-99.99,,,-99.99,,2013-05-01 13:21:00,
2013-05-01 06:31:00,27.0,20.0,-100.00,South,180,6.0,8.0,75,-99.99,,,-99.99,,2013-05-01 13:31:00,
2013-05-01 06:42:00,27.0,20.0,-100.00,South,180,5.0,9.0,75,-99.99,,,-99.99,,2013-05-01 13:42:00,
2013-05-01 06:52:00,27.0,20.0,-100.00,South,180,6.0,9.0,74,-99.99,,,-99.99,,2013-05-01 13:52:00,
2013-05-01 07:02:00,28.0,21.0,-100.00,South,180,6.0,9.0,74,-99.99,,,-99.99,,2013-05-01 14:02:00,
2013-05-01 07:11:00,28.0,21.0,-100.00,South,180,6.0,9.0,74,-99.99,,,-99.99,,2013-05-01 14:11:00,
2013-05-01 07:21:00,28.0,21.0,-100.00,South,180,6.0,9.0,74,-99.99,,,-99.99,,2013-05-01 14:21:00,
2013-05-01 07:31:00,28.0,21.0,-100.00,South,180,6.0,9.0,74,-99.99,,,-99.99,,2013-05-01 14:31:00,
2013-05-01 07:41:00,29.0,22.0,-100.00,South,180,6.0,7.0,74,-99.99,,,-99.99,,2013-05-01 14:41:00,
2013-05-01 07:51:00,31.0,23.0,-100.00,SW,225,4.0,7.0,72,-99.99,,,-99.99,,2013-05-01 14:51:00,
2013-05-01 08:01:00,31.0,23.0,-100.00,SW,225,4.0,7.0,72,-99.99,,,-99.99,,2013-05-01 15:01:00,
2013-05-01 08:11:00,32.0,23.0,-100.00,South,180,3.0,8.0,70,-99.99,,,-99.99,,2013-05-01 15:11:00,
2013-05-01 08:21:00,33.0,24.0,-100.00,SW,225,4.0,6.0,68,-99.99,,,-99.99,,2013-05-01 15:21:00,
2013-05-01 08:33:00,33.0,24.0,-100.00,SW,225,4.0,6.0,68,-99.99,,,-99.99,,2013-05-01 15:33:00,
2013-05-01 08:42:00,35.0,25.0,-100.00,SW,225,0.0,4.0,65,-99.99,,,-99.99,,2013-05-01 15:42:00,
2013-05-01 08:53:00,37.0,25.0,-100.00,SW,225,2.0,5.0,62,-99.99,,,-99.99,,2013-05-01 15:53:00,
2013-05-01 09:03:00,37.0,25.0,-100.00,SW,225,2.0,5.0,62,-99.99,,,-99.99,,2013-05-01 16:03:00,
2013-05-01 09:12:00,38.0,26.0,-100.00,South,180,2.0,5.0,61,-99.99,,,-99.99,,2013-05-01 16:12:00,
2013-05-01 09:22:00,41.0,27.0,-100.00,North,0,1.0,6.0,57,-99.99,,,-99.99,,2013-05-01 16:22:00,
2013-05-01 09:31:00,41.0,27.0,-100.00,North,0,1.0,6.0,57,-99.99,,,-99.99,,2013-05-01 16:31:00,
2013-05-01 09:42:00,42.0,26.0,-100.00,NE,45,2.0,6.0,53,-99.99,,,-99.99,,2013-05-01 16:42:00,
2013-05-01 09:53:00,42.0,25.0,-100.00,NE,45,1.0,6.0,51,-99.99,,,-99.99,,2013-05-01 16:53:00,
2013-05-01 10:02:00,42.0,25.0,-100.00,NE,45,1.0,6.0,51,-99.99,,,-99.99,,2013-05-01 17:02:00,
2013-05-01 10:12:00,42.0,25.0,-100.00,NE,45,5.0,8.0,49,-99.99,,,-99.99,,2013-05-01 17:12:00,
2013-05-01 10:21:00,45.0,25.0,-100.00,East,90,7.0,11.0,45,-99.99,,,-99.99,,2013-05-01 17:21:00,
2013-05-01 10:31:00,45.0,25.0,-100.00,East,90,7.0,11.0,45,-99.99,,,-99.99,,2013-05-01 17:31:00,
2013-05-01 10:42:00,46.0,25.0,-100.00,North,0,3.0,11.0,43,-99.99,,,-99.99,,2013-05-01 17:42:00,
2013-05-01 10:52:00,47.0,25.0,-100.00,North,0,1.0,13.0,41,-99.99,,,-99.99,,2013-05-01 17:52:00,
2013-05-01 11:01:00,47.0,25.0,-100.00,North,0,1.0,13.0,41,-99.99,,,-99.99,,2013-05-01 18:01:00,
2013-05-01 11:11:00,48.0,23.0,-100.00,East,90,8.0,13.0,38,-99.99,,,-99.99,,2013-05-01 18:11:00,
2013-05-01 11:22:00,47.0,23.0,-100.00,NE,45,6.0,14.0,38,-99.99,,,-99.99,,2013-05-01 18:22:00,
2013-05-01 11:32:00,47.0,23.0,-100.00,NE,45,6.0,14.0,38,-99.99,,,-99.99,,2013-05-01 18:32:00,
2013-05-01 11:41:00,47.0,23.0,-100.00,NE,45,6.0,14.0,38,-99.99,,,-99.99,,2013-05-01 18:41:00,
2013-05-01 11:52:00,50.0,23.0,-100.00,SE,135,4.0,15.0,34,-99.99,,,-99.99,,2013-05-01 18:52:00,
2013-05-01 12:01:00,50.0,23.0,-100.00,SE,135,4.0,15.0,34,-99.99,,,-99.99,,2013-05-01 19:01:00,
2013-05-01 12:11:00,52.0,24.0,-100.00,SE,135,6.0,11.0,33,-99.99,,,-99.99,,2013-05-01 19:11:00,
2013-05-01 12:22:00,52.0,22.0,-100.00,North,0,6.0,14.0,31,-99.99,,,-99.99,,2013-05-01 19:22:00,
2013-05-01 12:32:00,52.0,22.0,-100.00,North,0,6.0,14.0,31,-99.99,,,-99.99,,2013-05-01 19:32:00,
2013-05-01 12:42:00,53.0,23.0,-100.00,NE,45,8.0,12.0,30,-99.99,,,-99.99,,2013-05-01 19:42:00,
2013-05-01 12:52:00,54.0,23.0,-100.00,East,90,4.0,12.0,29,-99.99,,,-99.99,,2013-05-01 19:52:00,
2013-05-01 13:01:00,54.0,23.0,-100.00,East,90,4.0,12.0,29,-99.99,,,-99.99,,2013-05-01 20:01:00,
2013-05-01 13:11:00,55.0,23.0,-100.00,North,0,4.0,11.0,28,-99.99,,,-99.99,,2013-05-01 20:11:00,
2013-05-01 13:21:00,55.0,23.0,-100.00,North,0,1.0,9.0,28,-99.99,,,-99.99,,2013-05-01 20:21:00,
2013-05-01 13:32:00,55.0,23.0,-100.00,North,0,1.0,9.0,28,-99.99,,,-99.99,,2013-05-01 20:32:00,
2013-05-01 13:42:00,55.0,21.0,-100.00,NW,315,6.0,11.0,27,-99.99,,,-99.99,,2013-05-01 20:42:00,
2013-05-01 13:52:00,56.0,23.0,-100.00,East,90,3.0,20.0,27,-99.99,,,-99.99,,2013-05-01 20:52:00,
2013-05-01 14:01:00,56.0,23.0,-100.00,East,90,3.0,20.0,27,-99.99,,,-99.99,,2013-05-01 21:01:00,
2013-05-01 14:11:00,57.0,23.0,-100.00,SE,135,4.0,10.0,26,-99.99,,,-99.99,,2013-05-01 21:11:00,
2013-05-01 14:21:00,59.0,23.0,-100.00,East,90,6.0,14.0,25,-99.99,,,-99.99,,2013-05-01 21:21:00,
2013-05-01 14:32:00,59.0,23.0,-100.00,East,90,6.0,14.0,25,-99.99,,,-99.99,,2013-05-01 21:32:00,
2013-05-01 14:43:00,59.0,23.0,-100.00,East,90,8.0,13.0,25,-99.99,,,-99.99,,2013-05-01 21:43:00,
2013-05-01 14:52:00,57.0,22.0,-100.00,North,0,9.0,12.0,25,-99.99,,,-99.99,,2013-05-01 21:52:00,
2013-05-01 15:03:00,57.0,22.0,-100.00,North,0,9.0,12.0,25,-99.99,,,-99.99,,2013-05-01 22:03:00,
2013-05-01 15:12:00,59.0,23.0,-100.00,North,0,9.0,11.0,25,-99.99,,,-99.99,,2013-05-01 22:12:00,
2013-05-01 15:23:00,59.0,22.0,-100.00,East,90,6.0,14.0,24,-99.99,,,-99.99,,2013-05-01 22:23:00,
2013-05-01 15:33:00,59.0,22.0,-100.00,East,90,6.0,14.0,24,-99.99,,,-99.99,,2013-05-01 22:33:00,
2013-05-01 15:42:00,60.0,23.0,-100.00,East,90,3.0,11.0,24,-99.99,,,-99.99,,2013-05-01 22:42:00,
2013-05-01 15:52:00,60.0,23.0,-100.00,North,0,5.0,12.0,24,-99.99,,,-99.99,,2013-05-01 22:52:00,
2013-05-01 16:02:00,60.0,23.0,-100.00,North,0,5.0,12.0,24,-99.99,,,-99.99,,2013-05-01 23:02:00,
2013-05-01 16:11:00,60.0,22.0,-100.00,North,0,6.0,9.0,23,-99.99,,,-99.99,,2013-05-01 23:11:00,
2013-05-01 16:21:00,60.0,22.0,-100.00,NE,45,10.0,14.0,23,-99.99,,,-99.99,,2013-05-01 23:21:00,
2013-05-01 16:32:00,60.0,22.0,-100.00,NE,45,10.0,14.0,23,-99.99,,,-99.99,,2013-05-01 23:32:00,
2013-05-01 16:42:00,60.0,22.0,-100.00,East,90,7.0,14.0,23,-99.99,,,-99.99,,2013-05-01 23:42:00,
2013-05-01 16:52:00,62.0,24.0,-100.00,North,0,6.0,13.0,23,-99.99,,,-99.99,,2013-05-01 23:52:00,
2013-05-01 17:01:00,62.0,24.0,-100.00,North,0,6.0,13.0,23,-99.99,,,-99.99,,2013-05-02 00:01:00,
2013-05-01 17:11:00,61.0,23.0,-100.00,West,270,1.0,14.0,23,-99.99,,,-99.99,,2013-05-02 00:11:00,
2013-05-01 17:21:00,62.0,22.0,-100.00,SW,225,1.0,7.0,22,-99.99,,,-99.99,,2013-05-02 00:21:00,
2013-05-01 17:32:00,62.0,22.0,-100.00,SW,225,1.0,7.0,22,-99.99,,,-99.99,,2013-05-02 00:32:00,
2013-05-01 17:52:00,60.0,22.0,-100.00,North,0,8.0,14.0,23,-99.99,,,-99.99,,2013-05-02 00:52:00,
2013-05-01 18:01:00,60.0,22.0,-100.00,North,0,8.0,14.0,23,-99.99,,,-99.99,,2013-05-02 01:01:00,
2013-05-01 18:11:00,61.0,23.0,-100.00,North,0,8.0,13.0,23,-99.99,,,-99.99,,2013-05-02 01:11:00,
2013-05-01 18:21:00,60.0,22.0,-100.00,North,0,9.0,14.0,23,-99.99,,,-99.99,,2013-05-02 01:21:00,
2013-05-01 18:32:00,60.0,22.0,-100.00,North,0,9.0,14.0,23,-99.99,,,-99.99,,2013-05-02 01:32:00,
2013-05-01 18:42:00,60.0,23.0,-100.00,North,0,11.0,15.0,24,-99.99,,,-99.99,,2013-05-02 01:42:00,
2013-05-01 18:52:00,59.0,23.0,-100.00,North,0,11.0,16.0,25,-99.99,,,-99.99,,2013-05-02 01:52:00,
2013-05-01 19:01:00,59.0,23.0,-100.00,North,0,11.0,16.0,25,-99.99,,,-99.99,,2013-05-02 02:01:00,
2013-05-01 19:11:00,59.0,23.0,-100.00,North,0,10.0,13.0,25,-99.99,,,-99.99,,2013-05-02 02:11:00,
2013-05-01 19:21:00,59.0,24.0,-100.00,North,0,9.0,14.0,26,-99.99,,,-99.99,,2013-05-02 02:21:00,
2013-05-01 19:32:00,59.0,24.0,-100.00,North,0,9.0,14.0,26,-99.99,,,-99.99,,2013-05-02 02:32:00,
2013-05-01 20:01:00,57.0,24.0,-100.00,North,0,10.0,14.0,28,-99.99,,,-99.99,,2013-05-02 03:01:00,
2013-05-01 20:11:00,56.0,24.0,-100.00,North,0,9.0,16.0,28,-99.99,,,-99.99,,2013-05-02 03:11:00,
2013-05-01 20:22:00,56.0,23.0,-100.00,North,0,8.0,14.0,28,-99.99,,,-99.99,,2013-05-02 03:22:00,
2013-05-01 20:32:00,56.0,23.0,-100.00,North,0,8.0,14.0,28,-99.99,,,-99.99,,2013-05-02 03:32:00,
2013-05-01 20:42:00,55.0,23.0,-100.00,North,0,6.0,12.0,28,-99.99,,,-99.99,,2013-05-02 03:42:00,
2013-05-01 20:52:00,54.0,23.0,-100.00,North,0,6.0,9.0,29,-99.99,,,-99.99,,2013-05-02 03:52:00,
2013-05-01 21:03:00,54.0,23.0,-100.00,North,0,6.0,9.0,29,-99.99,,,-99.99,,2013-05-02 04:03:00,
2013-05-01 21:12:00,53.0,22.0,-100.00,NW,315,3.0,8.0,29,-99.99,,,-99.99,,2013-05-02 04:12:00,
2013-05-01 21:23:00,52.0,22.0,-100.00,NW,315,4.0,7.0,30,-99.99,,,-99.99,,2013-05-02 04:23:00,
2013-05-01 21:33:00,52.0,22.0,-100.00,NW,315,4.0,7.0,30,-99.99,,,-99.99,,2013-05-02 04:33:00,
2013-05-01 21:42:00,52.0,22.0,-100.00,NW,315,4.0,8.0,30,-99.99,,,-99.99,,2013-05-02 04:42:00,
2013-05-01 21:52:00,52.0,22.0,-100.00,NW,315,4.0,8.0,30,-99.99,,,-99.99,,2013-05-02 04:52:00,
2013-05-01 22:02:00,52.0,22.0,-100.00,NW,315,4.0,8.0,30,-99.99,,,-99.99,,2013-05-02 05:02:00,
2013-05-01 22:12:00,52.0,21.0,-100.00,NW,315,6.0,9.0,30,-99.99,,,-99.99,,2013-05-02 05:12:00,
2013-05-01 22:22:00,51.0,21.0,-100.00,NW,315,4.0,9.0,30,-99.99,,,-99.99,,2013-05-02 05:22:00,
2013-05-01 22:32:00,51.0,21.0,-100.00,NW,315,4.0,9.0,30,-99.99,,,-99.99,,2013-05-02 05:32:00,
2013-05-01 22:42:00,51.0,22.0,-100.00,NW,315,6.0,9.0,31,-99.99,,,-99.99,,2013-05-02 05:42:00,
2013-05-01 22:51:00,51.0,21.0,-100.00,NW,315,4.0,8.0,31,-99.99,,,-99.99,,2013-05-02 05:51:00,
2013-05-01 23:01:00,51.0,21.0,-100.00,NW,315,4.0,8.0,31,-99.99,,,-99.99,,2013-05-02 06:01:00,
2013-05-01 23:12:00,50.0,22.0,-100.00,NW,315,3.0,6.0,32,-99.99,,,-99.99,,2013-05-02 06:12:00,
2013-05-01 23:21:00,50.0,21.0,-100.00,NW,315,3.0,4.0,32,-99.99,,,-99.99,,2013-05-02 06:21:00,
2013-05-01 23:31:00,50.0,21.0,-100.00,NW,315,3.0,4.0,32,-99.99,,,-99.99,,2013-05-02 06:31:00,
2013-05-01 23:52:00,50.0,22.0,-100.00,NW,315,5.0,8.0,33,-99.99,,,-99.99,,2013-05-02 06:52:00,